TimeEDT,TemperatureF,Dew PointF,Humidity,Sea Level PressureIn,VisibilityMPH,Wind Direction,Wind SpeedMPH,Gust SpeedMPH,PrecipitationIn,Events,Conditions,WindDirDegrees,DateUTC
12:35 AM,64.4,62.6,94,29.69,5.0,SE,5.8,-,N/A,,Scattered Clouds,130,2011-10-01 04:35:00
12:43 AM,64.4,62.6,94,29.69,2.5,SE,4.6,-,N/A,,Mostly Cloudy,130,2011-10-01 04:43:00
1:01 AM,64.4,62.6,94,29.69,1.0,ESE,6.9,-,N/A,,Overcast,120,2011-10-01 05:01:00
1:08 AM,64.4,62.6,94,29.69,0.5,SE,5.8,-,N/A,Fog,Fog,130,2011-10-01 05:08:00
1:30 AM,64.4,62.6,94,29.69,1.2,SE,4.6,-,N/A,,Overcast,140,2011-10-01 05:30:00
1:37 AM,64.4,62.6,94,29.69,3.0,SE,4.6,-,N/A,,Overcast,130,2011-10-01 05:37:00
1:52 AM,64.0,62.1,93,29.69,6.0,ESE,5.8,-,N/A,,Mostly Cloudy,120,2011-10-01 05:52:00
2:02 AM,62.6,62.6,100,29.68,5.0,ESE,4.6,-,N/A,,Mostly Cloudy,120,2011-10-01 06:02:00
2:52 AM,62.1,61.0,96,29.67,5.0,SE,5.8,-,N/A,,Overcast,130,2011-10-01 06:52:00
3:31 AM,62.6,60.8,94,29.66,9.0,SE,5.8,-,N/A,,Overcast,130,2011-10-01 07:31:00
3:43 AM,62.6,60.8,94,29.66,8.0,SE,5.8,-,0.00,Rain,Light Rain,140,2011-10-01 07:43:00
3:52 AM,64.0,62.1,93,29.65,9.0,SE,5.8,-,0.00,Rain,Light Rain,140,2011-10-01 07:52:00
4:01 AM,64.4,62.6,94,29.65,10.0,SSE,9.2,-,0.00,Rain,Light Rain,160,2011-10-01 08:01:00
5:52 AM,64.0,61.0,90,29.62,10.0,Calm,Calm,-,0.03,,Overcast,0,2011-10-01 09:52:00
6:52 AM,63.0,61.0,93,29.64,3.0,Calm,Calm,-,0.03,Rain,Rain,0,2011-10-01 10:52:00
7:02 AM,62.6,60.8,94,29.64,1.8,Calm,Calm,-,0.07,Rain,Heavy Rain,0,2011-10-01 11:02:00
7:11 AM,64.4,60.8,88,29.62,0.8,East,5.8,-,0.16,Rain-Thunderstorm,Heavy Thunderstorms and Rain,90,2011-10-01 11:11:00
7:15 AM,64.4,62.6,94,29.63,2.0,Calm,Calm,-,0.16,Rain-Thunderstorm,Light Thunderstorms and Rain,0,2011-10-01 11:15:00
7:22 AM,64.4,62.6,94,29.63,10.0,Calm,Calm,-,0.16,Rain-Thunderstorm,Light Thunderstorms and Rain,0,2011-10-01 11:22:00
8:24 AM,66.2,64.4,94,29.62,10.0,ESE,4.6,-,0.00,,Scattered Clouds,110,2011-10-01 12:24:00
8:38 AM,66.2,64.4,94,29.62,2.5,SE,4.6,-,0.00,Rain,Light Rain,140,2011-10-01 12:38:00
8:50 AM,64.4,62.6,94,29.62,4.0,Variable,5.8,-,0.01,Rain,Light Rain,0,2011-10-01 12:50:00
8:52 AM,64.9,63.0,93,29.63,5.0,SSE,6.9,-,0.01,Rain,Light Rain,150,2011-10-01 12:52:00
9:43 AM,64.4,62.6,94,29.62,10.0,South,8.1,-,0.03,,Scattered Clouds,170,2011-10-01 13:43:00
9:52 AM,66.0,62.1,87,29.60,10.0,SE,6.9,-,0.03,,Partly Cloudy,130,2011-10-01 13:52:00
10:52 AM,66.9,64.0,90,29.61,10.0,SE,8.1,-,N/A,,Clear,130,2011-10-01 14:52:00
11:02 AM,68.0,64.4,88,29.62,10.0,SSE,9.2,-,N/A,,Scattered Clouds,150,2011-10-01 15:02:00
11:11 AM,66.2,64.4,94,29.62,9.0,SE,10.4,16.1,N/A,,Mostly Cloudy,130,2011-10-01 15:11:00
11:21 AM,66.2,62.6,88,29.62,1.5,ESE,8.1,-,N/A,,Overcast,120,2011-10-01 15:21:00
11:36 AM,66.2,62.6,88,29.63,3.0,Variable,4.6,-,N/A,,Overcast,0,2011-10-01 15:36:00
11:52 AM,66.0,63.0,90,29.64,2.0,Calm,Calm,-,N/A,,Overcast,0,2011-10-01 15:52:00
12:03 PM,68.0,64.4,88,29.64,9.0,Variable,3.5,-,N/A,,Overcast,0,2011-10-01 16:03:00
12:33 PM,69.8,64.4,83,29.63,10.0,SSW,4.6,-,N/A,,Scattered Clouds,200,2011-10-01 16:33:00
12:52 PM,70.0,64.9,84,29.64,10.0,SSW,9.2,-,N/A,,Partly Cloudy,200,2011-10-01 16:52:00
1:52 PM,70.0,64.0,81,29.63,10.0,Variable,5.8,-,N/A,,Mostly Cloudy,0,2011-10-01 17:52:00
2:22 PM,71.6,64.4,78,29.63,10.0,South,5.8,-,N/A,,Partly Cloudy,190,2011-10-01 18:22:00
2:52 PM,71.1,64.9,81,29.63,10.0,SSW,6.9,-,N/A,,Clear,210,2011-10-01 18:52:00
3:52 PM,73.9,66.0,76,29.65,10.0,SSW,8.1,-,N/A,,Clear,210,2011-10-01 19:52:00
4:52 PM,71.1,64.9,81,29.66,10.0,SSW,6.9,-,N/A,,Clear,210,2011-10-01 20:52:00
5:35 PM,69.8,64.4,83,29.67,10.0,SSW,5.8,-,N/A,,Mostly Cloudy,210,2011-10-01 21:35:00
5:52 PM,68.0,64.0,87,29.68,9.0,SSW,4.6,-,N/A,,Overcast,200,2011-10-01 21:52:00
6:15 PM,68.0,64.4,88,29.69,8.0,SSW,5.8,-,N/A,,Overcast,210,2011-10-01 22:15:00
6:52 PM,66.9,64.0,90,29.70,8.0,SSW,6.9,-,N/A,,Overcast,210,2011-10-01 22:52:00
7:52 PM,66.9,64.0,90,29.73,8.0,SW,6.9,-,N/A,,Partly Cloudy,220,2011-10-01 23:52:00
8:34 PM,66.2,64.4,94,29.75,9.0,SSW,6.9,-,N/A,,Mostly Cloudy,210,2011-10-02 00:34:00
8:52 PM,66.9,64.0,90,29.75,8.0,Variable,4.6,-,N/A,,Overcast,0,2011-10-02 00:52:00
9:16 PM,64.4,60.8,88,29.75,4.0,Calm,Calm,-,N/A,,Overcast,0,2011-10-02 01:16:00
9:59 PM,64.4,60.8,88,29.76,4.0,Calm,Calm,-,N/A,,Partly Cloudy,0,2011-10-02 01:59:00
10:52 PM,64.9,63.0,93,29.76,4.0,Calm,Calm,-,N/A,,Partly Cloudy,0,2011-10-02 02:52:00
11:13 PM,64.4,62.6,94,29.77,5.0,Calm,Calm,-,N/A,,Mostly Cloudy,0,2011-10-02 03:13:00
11:33 PM,62.6,60.8,94,29.77,2.5,ESE,3.5,-,N/A,,Overcast,110,2011-10-02 03:33:00
11:38 PM,60.8,60.8,100,29.77,0.8,Calm,Calm,-,N/A,,Overcast,0,2011-10-02 03:38:00
11:52 PM,62.1,60.1,93,29.78,0.5,Calm,Calm,-,N/A,Fog,Fog,0,2011-10-02 03:52:00